Weather reports worldwide

Advertisment
Manschnow, Germany (10396): temperature & dewpoint: 11.10.2018 06:00:00 - 17.10.2018 06:00:00 (CEST)Manschnow, Germany (10396): temperature 5cm & temperature -5cm: 11.10.2018 06:00:00 - 17.10.2018 06:00:00 (CEST)Manschnow, Germany (10396): temperature -20cm & temperature -100cm: 11.10.2018 06:00:00 - 17.10.2018 06:00:00 (CEST)Manschnow, Germany (10396): wind speed & gusts: 11.10.2018 06:00:00 - 17.10.2018 06:00:00 (CEST)Manschnow, Germany (10396): wind direction: 11.10.2018 06:00:00 - 17.10.2018 06:00:00 (CEST)Manschnow, Germany (10396): reduced air pressure: 11.10.2018 06:00:00 - 17.10.2018 06:00:00 (CEST)Manschnow, Germany (10396): visibility: 11.10.2018 06:00:00 - 17.10.2018 06:00:00 (CEST)Manschnow, Germany (10396): sunshine duration: 11.10.2018 06:00:00 - 17.10.2018 06:00:00 (CEST)Manschnow, Germany (10396): precipitation: 11.10.2018 06:00:00 - 17.10.2018 06:00:00 (CEST)
Date & Time tt [°C] td [°C] tt 5cm [°C] tt -5cm [°C] tt -20cm [°C] tt -100cm [°C] ff [km/h] ff [kn] fx [km/h] fx [kn] dd ppp [hPa] vv [km] sd [min] rr [mm]
17.10.2018 06:00:00 6,0 5,2 4,3 8,7 12,7 14,9 5 3 8 4 E 1019,5 3,1 0 0,0
17.10.2018 05:00:00 6,2 4,9 4,2 9,1 12,9 14,9 4 2 10 5 ENE 1019,4 4,2 0 0,0
17.10.2018 04:00:00 6,7 5,8 5,0 9,4 13,2 14,9 4 2 7 4 ENE 1019,4 3,4 0 0,0
17.10.2018 03:00:00 5,8 4,4 4,6 9,8 13,5 14,9 5 3 11 6 ESE 1019,5 4,0 0 0,0
17.10.2018 02:00:00 6,2 4,7 4,8 10,2 13,8 14,9 5 3 9 5 SSE 1019,5 5 0 0,0
17.10.2018 01:00:00 7,8 6,7 5,2 10,6 14,1 14,9 4 2 5 3 N 1019,4 4,5 0 0,0
17.10.2018 00:00:00 8,0 6,5 5,5 11,2 14,4 14,9 0 0 6 4 N 1019,7 7 0 0,0
16.10.2018 23:00:00 9,0 7,0 6,5 11,8 14,8 14,9 2 1 11 6 N 1019,7 9 0 0,0
16.10.2018 22:00:00 10,5 7,8 7,4 12,5 15,1 14,9 3 1 6 4 ESE 1019,5 12 0 0,0
16.10.2018 21:00:00 10,6 6,8 8,2 13,4 15,4 14,9 3 2 6 3 E 1019,5 12 0 0,0
16.10.2018 20:00:00 12,4 8,4 8,7 14,3 15,7 14,9 0 0 5 3 N 1019,5 15 0 0,0
16.10.2018 19:00:00 14,1 7,7 10,0 15,6 15,9 14,9 2 1 6 3 E 1019,0 17 0 0,0
16.10.2018 18:00:00 18,0 8,0 13,5 17,5 15,9 14,9 4 2 9 5 E 1018,8 14 32 0,0
16.10.2018 17:00:00 20,8 7,6 21,2 19,3 15,6 14,9 6 3 10 5 ENE 1018,4 20 60 0,0
16.10.2018 16:00:00 21,1 7,1 22,9 20,3 15,0 14,9 6 3 10 6 E 1018,3 24 60 0,0
16.10.2018 15:00:00 21,1 6,5 23,1 20,4 14,4 14,9 2 1 10 6 S 1018,4 17 60 0,0
16.10.2018 14:00:00 20,7 6,4 23,5 19,6 13,7 14,9 3 2 9 5 W 1018,5 7 59 0,0
16.10.2018 13:00:00 19,2 6,5 20,4 17,8 13,0 14,9 3 2 8 4 S 1018,8 16 55 0,0
16.10.2018 12:00:00 17,1 6,6 18,4 15,5 12,6 14,9 2 1 9 5 ESE 1018,9 19 52 0,0
16.10.2018 11:00:00 11,9 6,8 13,3 12,5 12,4 14,9 4 2 8 4 E 1019,0 16 12 0,0
16.10.2018 10:00:00 9,5 5,6 9,7 10,7 12,4 14,9 5 3 8 5 E 1019,1 15 34 0,0
16.10.2018 09:00:00 8,5 4,9 9,2 9,7 12,5 14,9 7 4 13 7 E 1018,8 12 29 0,0
16.10.2018 08:00:00 6,7 4,2 5,7 9,2 12,8 14,9 6 3 15 8 E 1018,4 12 0 0,0
16.10.2018 07:00:00 7,6 4,6 6,5 9,5 13,0 14,9 9 5 14 8 E 1017,9 12 0 0,0
16.10.2018 06:00:00 7,6 4,7 6,4 9,8 13,2 14,9 9 5 13 7 E 1017,9 12 0 0,0
16.10.2018 05:00:00 8,5 5,0 6,9 10,2 13,4 14,9 7 4 11 6 E 1017,6 14 0 0,0
16.10.2018 04:00:00 10,1 5,4 7,8 10,5 13,7 14,9 8 4 11 6 ESE 1017,4 18 0 0,0
16.10.2018 03:00:00 10,0 5,4 7,8 10,7 14,0 14,9 6 4 10 6 E 1017,5 17 0 0,0
16.10.2018 02:00:00 10,4 5,5 8,3 11,1 14,2 14,9 8 4 10 5 E 1017,4 17 0 0,0
16.10.2018 01:00:00 10,7 5,5 8,1 11,4 14,5 14,9 8 4 10 6 ESE 1017,3 21 0 0,0
16.10.2018 00:00:00 10,9 5,5 7,8 12,0 14,9 14,9 0 0 9 5 N 1017,4 18 0 0,0
15.10.2018 23:00:00 13,5 5,1 8,5 12,6 15,2 14,9 4 2 13 7 SE 1017,3 22 0 0,0
15.10.2018 22:00:00 12,8 5,4 9,4 13,2 15,5 14,9 5 3 9 5 SE 1017,1 20 0 0,0
15.10.2018 21:00:00 13,3 5,1 9,5 14,0 15,8 14,9 6 3 10 5 SSE 1016,9 19 0 0,0
15.10.2018 20:00:00 14,9 5,0 10,6 14,8 16,1 14,9 6 4 11 6 E 1016,8 23 0 0,0
15.10.2018 19:00:00 15,8 4,3 10,9 15,9 16,3 14,9 6 4 13 7 ESE 1016,9 24 0 0,0
15.10.2018 18:00:00 19,6 4,5 14,1 18,0 16,2 14,9 5 3 18 10 SE 1016,3 26 35 0,0
15.10.2018 17:00:00 22,7 3,5 22,4 19,9 15,9 14,9 11 6 25 13 S 1016,2 23 60 0,0
15.10.2018 16:00:00 23,3 3,1 24,6 20,7 15,4 14,9 16 9 29 16 SSE 1016,1 10 60 0,0
15.10.2018 15:00:00 22,9 2,9 24,3 20,7 14,8 14,8 19 10 31 17 SSE 1016,2 8 60 0,0
15.10.2018 14:00:00 22,3 2,9 24,6 19,9 14,1 14,8 22 12 32 17 SSE 1016,7 7 60 0,0
15.10.2018 13:00:00 21,0 3,7 23,4 17,9 13,6 14,8 14 8 25 13 SSE 1016,9 9 51 0,0
15.10.2018 12:00:00 19,1 4,0 19,8 16,5 13,0 14,8 10 5 19 10 SSE 1017,0 19 51 0,0
15.10.2018 11:00:00 17,2 3,8 18,8 13,9 12,8 14,8 11 6 18 10 SSE 1017,0 20 45 0,0
15.10.2018 10:00:00 12,7 4,7 13,0 10,9 12,9 14,8 9 5 12 7 E 1016,8 26 27 0,0
15.10.2018 09:00:00 10,7 4,2 8,7 10,1 13,0 14,8 5 3 14 8 ENE 1016,7 24 40 0,0
15.10.2018 08:00:00 10,3 4,3 7,4 9,8 13,3 14,8 8 4 14 8 ESE 1016,3 28 0 0,0
15.10.2018 07:00:00 9,2 4,6 5,8 10,1 13,5 14,8 5 3 10 5 NE 1016,4 23 0 0,0
15.10.2018 06:00:00 9,5 4,6 7,2 10,7 13,8 14,8 7 4 15 8 E 1016,4 23 0 0,0
15.10.2018 05:00:00 12,4 4,7 10,0 11,3 14,0 14,8 15 8 21 11 SE 1016,3 30 0 0,0
15.10.2018 04:00:00 13,4 5,0 10,8 11,5 14,2 14,8 13 7 21 11 SE 1016,2 29 0 0,0
15.10.2018 03:00:00 14,4 5,2 12,2 12,0 14,4 14,8 16 8 26 14 SSE 1016,2 29 0 0,0
15.10.2018 02:00:00 14,5 5,6 12,1 12,0 14,7 14,8 16 8 21 11 SE 1016,2 28 0 0,0
15.10.2018 01:00:00 13,8 6,1 11,2 12,3 15,0 14,8 15 8 18 10 ESE 1016,0 26 0 0,0
15.10.2018 00:00:00 14,2 6,5 10,2 12,8 15,3 14,8 12 6 16 9 ESE 1016,0 24 0 0,0
14.10.2018 23:00:00 15,7 6,7 12,3 13,5 15,6 14,8 11 6 20 11 SE 1016,2 27 0 0,0
14.10.2018 22:00:00 15,8 7,1 11,7 13,9 15,9 14,8 12 6 18 10 SE 1015,9 24 0 0,0
14.10.2018 21:00:00 16,1 7,5 13,2 14,7 16,2 14,8 9 5 14 7 E 1016,0 23 0 0,0
14.10.2018 20:00:00 17,5 7,4 14,3 15,7 16,5 14,8 13 7 16 9 ESE 1015,8 26 0 0,0
14.10.2018 19:00:00 18,9 7,1 15,4 17,0 16,7 14,8 12 7 16 8 SE 1015,6 30 0 0,0
14.10.2018 18:00:00 21,9 7,8 18,7 18,9 16,6 14,8 7 4 21 11 E 1015,3 25 55 0,0
14.10.2018 17:00:00 24,3 6,8 23,9 20,7 16,3 14,8 18 10 32 17 SE 1015,5 15 60 0,0
14.10.2018 16:00:00 24,9 6,5 25,8 21,5 15,7 14,8 16 9 28 15 SE 1015,8 6 60 0,0
14.10.2018 15:00:00 24,2 6,0 25,6 21,4 15,1 14,8 22 12 37 20 S 1016,2 6 60 0,0
14.10.2018 14:00:00 23,1 6,0 25,3 20,7 14,3 14,8 25 13 41 22 SE 1016,8 4,3 60 0,0
14.10.2018 13:00:00 21,9 6,2 23,7 19,3 13,6 14,8 27 14 38 21 SSE 1017,4 4,4 60 0,0
14.10.2018 12:00:00 19,6 7,8 20,9 17,0 13,1 14,8 19 11 30 16 ESE 1018,0 9 60 0,0
14.10.2018 11:00:00 17,8 8,9 19,6 14,3 12,7 14,8 10 6 19 10 ESE 1018,6 13 60 0,0
14.10.2018 10:00:00 12,5 7,9 14,1 11,7 12,6 14,7 11 6 16 9 E 1018,8 11 60 0,0
14.10.2018 09:00:00 9,5 6,5 10,2 9,8 12,8 14,7 10 6 16 8 E 1018,9 9 60 0,0
14.10.2018 08:00:00 7,0 5,4 6,2 9,2 13,1 14,7 9 5 14 8 E 1019,0 6 1 0,0
14.10.2018 07:00:00 7,5 5,7 6,1 9,5 13,3 14,7 9 5 14 8 E 1019,0 6 0 0,0
14.10.2018 06:00:00 8,1 6,2 6,9 9,8 13,6 14,7 10 5 15 8 E 1019,6 7 0 0,0
14.10.2018 05:00:00 8,5 6,6 7,1 10,2 13,9 14,7 9 5 16 9 E 1020,1 7 0 0,0
14.10.2018 04:00:00 9,0 6,9 7,3 10,6 14,2 14,7 8 5 11 6 E 1020,6 7 0 0,0
14.10.2018 03:00:00 9,4 7,2 7,6 11,1 14,6 14,7 7 4 12 6 ENE 1021,2 7 0 0,0
14.10.2018 02:00:00 9,9 7,7 8,3 11,6 14,9 14,7 9 5 13 7 E 1021,8 6 0 0,0
14.10.2018 01:00:00 10,6 8,0 9,0 12,3 15,2 14,7 8 4 13 7 E 1022,0 7 0 0,0
14.10.2018 00:00:00 11,6 8,4 9,7 12,9 15,6 14,7 8 4 11 6 E 1022,2 9 0 0,0
13.10.2018 23:00:00 12,8 9,0 10,3 13,5 15,9 14,7 6 3 11 6 E 1022,3 10 0 0,0
13.10.2018 22:00:00 13,6 9,4 11,6 14,2 16,3 14,7 9 5 15 8 E 1022,3 9 0 0,0
13.10.2018 21:00:00 14,4 9,6 12,3 15,0 16,6 14,7 10 5 14 8 E 1022,5 10 0 0,0
13.10.2018 20:00:00 15,6 9,6 13,3 16,1 16,9 14,7 10 5 13 7 E 1022,9 9 0 0,0
13.10.2018 19:00:00 18,4 9,7 15,5 17,6 17,1 14,7 10 5 18 10 E 1023,0 14 3 0,0
13.10.2018 18:00:00 20,9 9,0 19,0 19,5 17,1 14,7 11 6 16 9 ESE 1022,8 20 60 0,0
13.10.2018 17:00:00 24,0 8,5 23,9 21,4 16,8 14,7 13 7 18 10 ESE 1023,0 17 60 0,0
13.10.2018 16:00:00 24,7 8,5 26,0 22,4 16,2 14,7 13 7 24 13 SE 1023,3 13 60 0,0
13.10.2018 15:00:00 24,6 8,5 26,4 22,6 15,5 14,7 15 8 23 12 SE 1023,9 16 60 0,0
13.10.2018 14:00:00 23,9 8,8 26,7 21,9 14,7 14,6 14 8 24 13 SSE 1024,6 14 60 0,0
13.10.2018 13:00:00 21,9 9,7 24,6 20,4 14,0 14,6 13 7 19 10 SE 1025,3 13 60 0,0
13.10.2018 12:00:00 20,1 9,9 21,5 18,0 13,4 14,6 11 6 17 9 SSE 1025,8 14 60 0,0
13.10.2018 11:00:00 17,5 9,1 20,0 15,3 13,0 14,6 9 5 14 8 SSE 1026,1 13 60 0,0
13.10.2018 10:00:00 14,3 8,9 16,0 12,6 12,8 14,6 10 6 15 8 SE 1026,1 12 60 0,0
13.10.2018 09:00:00 10,9 7,8 11,6 10,6 13,0 14,6 11 6 14 8 ESE 1026,1 8 60 0,0
13.10.2018 08:00:00 8,4 6,7 7,7 9,9 13,2 14,6 7 4 11 6 E 1026,0 4,6 3 0,0
13.10.2018 07:00:00 8,6 7,2 7,4 10,2 13,5 14,6 7 4 11 6 E 1025,7 4,6 0 0,0
13.10.2018 06:00:00 9,3 7,7 7,3 10,6 13,7 14,6 4 2 11 6 E 1025,5 5 0 0,0
13.10.2018 05:00:00 9,5 7,6 8,4 10,9 14,0 14,6 9 5 12 7 E 1025,3 5 0 0,0
13.10.2018 04:00:00 10,2 8,1 8,2 11,3 14,2 14,6 5 3 9 5 E 1025,3 6 0 0,0
13.10.2018 03:00:00 11,7 8,8 9,5 11,7 14,5 14,6 8 4 14 8 ESE 1025,2 9 0 0,0
13.10.2018 02:00:00 11,7 8,8 9,4 12,1 14,8 14,6 9 5 11 6 ESE 1025,2 9 0 0,0
13.10.2018 01:00:00 12,3 8,8 9,0 12,6 15,1 14,6 8 4 12 6 ESE 1025,0 9 0 0,0
13.10.2018 00:00:00 13,8 9,4 11,5 13,2 15,4 14,6 8 5 13 7 ESE 1024,9 11 0 0,0
12.10.2018 23:00:00 14,7 9,8 12,2 13,5 15,7 14,6 9 5 11 6 ESE 1025,2 13 0 0,0
12.10.2018 22:00:00 15,1 10,0 10,4 14,2 16,0 14,6 8 4 10 6 ESE 1025,1 14 0 0,0
12.10.2018 21:00:00 13,9 9,2 10,9 14,9 16,4 14,6 6 3 8 5 E 1024,8 13 0 0,0
12.10.2018 20:00:00 17,0 10,6 12,2 15,9 16,7 14,6 6 4 9 5 E 1024,3 15 0 0,0
12.10.2018 19:00:00 16,9 9,4 13,0 17,4 16,9 14,6 8 4 11 6 ESE 1023,9 22 3 0,0
12.10.2018 18:00:00 20,9 9,7 18,1 19,5 16,8 14,6 7 4 14 8 SE 1023,5 23 60 0,0
12.10.2018 17:00:00 24,1 9,5 24,2 21,3 16,5 14,6 10 6 19 10 SSE 1023,3 19 60 0,0
12.10.2018 16:00:00 24,3 9,6 25,7 22,2 15,9 14,5 14 8 23 12 SSE 1023,2 22 60 0,0
12.10.2018 15:00:00 23,6 9,6 25,4 22,4 15,2 14,5 15 8 23 12 SSE 1023,0 16 60 0,0
12.10.2018 14:00:00 22,7 9,7 25,4 21,7 14,4 14,5 14 8 21 12 SSE 1023,1 14 60 0,0
12.10.2018 13:00:00 21,0 10,0 24,0 20,2 13,7 14,5 9 5 23 12 S 1023,6 17 60 0,0
12.10.2018 12:00:00 19,8 9,6 21,3 17,9 13,0 14,5 14 8 25 13 S 1023,6 16 60 0,0
12.10.2018 11:00:00 19,1 10,2 20,9 15,2 12,6 14,5 16 9 26 14 SSE 1023,0 11 60 0,0
12.10.2018 10:00:00 15,7 9,5 17,0 12,4 12,5 14,5 9 5 16 8 SSE 1022,8 13 60 0,0
12.10.2018 09:00:00 11,2 7,7 12,1 10,2 12,6 14,5 7 4 15 8 E 1022,3 12 60 0,0
12.10.2018 08:00:00 9,0 6,9 8,1 9,5 12,8 14,5 9 5 14 8 E 1022,0 9 3 0,0
12.10.2018 07:00:00 9,3 7,2 7,6 9,8 13,1 14,5 9 5 14 7 E 1021,3 10 0 0,0
12.10.2018 06:00:00 9,6 7,4 7,9 10,1 13,3 14,5 9 5 13 7 E 1020,9 10 0 0,0
12.10.2018 05:00:00 10,2 7,8 7,6 10,6 13,6 14,5 6 3 16 9 E 1020,7 11 0 0,0
12.10.2018 04:00:00 10,9 8,1 7,7 11,0 13,9 14,5 5 3 15 8 E 1020,3 13 0 0,0
12.10.2018 03:00:00 12,4 8,4 9,9 11,4 14,2 14,5 9 5 16 8 E 1020,3 14 0 0,0
12.10.2018 02:00:00 12,9 9,2 8,3 11,7 14,5 14,5 3 2 10 5 SE 1020,3 16 0 0,0
12.10.2018 01:00:00 13,6 8,9 9,3 12,3 14,8 14,5 10 5 14 7 ESE 1020,2 17 0 0,0
12.10.2018 00:00:00 15,1 9,5 11,9 13,0 15,1 14,5 13 7 19 10 ESE 1020,0 18 0 0,0
11.10.2018 23:00:00 14,6 9,2 10,8 13,6 15,4 14,5 10 5 16 9 SE 1019,8 16 0 0,0
11.10.2018 22:00:00 15,9 9,7 13,8 14,5 15,7 14,5 13 7 21 12 E 1019,3 16 0 0,0
11.10.2018 21:00:00 16,7 9,6 15,0 15,1 16,0 14,5 14 7 19 11 E 1019,2 17 0 0,0
11.10.2018 20:00:00 18,3 9,9 16,1 16,1 16,2 14,5 11 6 22 12 E 1019,0 18 0 0,0
11.10.2018 19:00:00 19,5 10,1 17,1 17,3 16,4 14,5 12 7 23 12 E 1018,4 19 2 0,0
11.10.2018 18:00:00 21,5 10,5 19,9 19,2 16,3 14,5 14 8 27 14 E 1018,0 19 60 0,0
11.10.2018 17:00:00 23,5 10,3 23,5 20,9 16,0 14,5 19 10 33 18 E 1018,0 19 60 0,0
11.10.2018 16:00:00 24,4 9,2 25,2 21,8 15,4 14,5 24 13 38 20 ESE 1018,4 10 60 0,0
11.10.2018 15:00:00 24,3 10,0 25,9 21,9 14,7 14,5 21 11 31 17 ESE 1018,8 12 60 0,0
11.10.2018 14:00:00 23,6 10,0 25,6 21,2 13,9 14,5 18 10 29 16 ESE 1019,2 13 60 0,0
11.10.2018 13:00:00 22,3 9,5 24,7 19,5 13,1 14,5 17 9 29 16 SE 1019,8 12 60 0,0
11.10.2018 12:00:00 19,9 11,9 21,5 17,0 12,5 14,5 11 6 19 10 E 1020,4 10 60 0,0
11.10.2018 11:00:00 15,9 11,0 17,7 14,3 12,1 14,5 14 7 22 12 E 1020,7 8 60 0,0
11.10.2018 10:00:00 12,9 9,8 14,2 11,7 12,0 14,5 14 7 22 12 E 1020,6 5 60 0,0
11.10.2018 09:00:00 10,1 8,6 9,7 10,0 12,1 14,5 14 7 23 12 E 1020,8 3,9 52 0,0
11.10.2018 08:00:00 9,7 8,5 8,7 9,6 12,3 14,5 14 7 21 12 E 1020,7 3,8 2 0,0
11.10.2018 07:00:00 9,9 8,6 8,7 9,7 12,6 14,5 15 8 23 12 E 1020,6 4,2 0 0,0
11.10.2018 06:00:00 10,1 8,9 8,7 9,9 12,8 14,5 10 6 19 10 E 1020,8 4,4 0 0,0

tt = temperature
td = dewpoint
tt 5cm = temperature 5cm
tt -5cm = temperature -5cm
tt -20cm = temperature -20cm
tt -100cm = temperature -100cm
ff = wind speed
fx = gusts
dd = wind direction
ppp = reduced air pressure
vv = visibility
sd = sunshine duration
rr = precipitation

Next stations